,,,PA_Meas_PMT16A,,PR_Meas_QMR101_102,,RH_Meas_QMH101,,SR_Meas_QMS101,,TA_Meas_QMH101,,GenWind,,GenWind,
date,time,status,PA,status,PR,status,RH,status,SR,status,TA,status,DirAvg,status,SpdAvg,
2009-09-27, 00:00:04,VALID,1003.54,VALID,0,VALID,92.9121,VALID,0,VALID,24.599,VALID,327,VALID,0.341016,
2009-09-27, 00:01:04,VALID,1003.52,VALID,0,VALID,93.3622,VALID,0,VALID,24.6769,VALID,327,VALID,0.040625,
2009-09-27, 00:02:04,VALID,1003.52,VALID,0,VALID,93.1029,VALID,0,VALID,24.6964,VALID,20,VALID,0.441016,
2009-09-27, 00:03:04,VALID,1003.49,VALID,0,VALID,92.874,VALID,0,VALID,24.6964,VALID,20,VALID,0.297656,
2009-09-27, 00:04:04,VALID,1003.47,VALID,0,VALID,92.9961,VALID,0,VALID,24.6964,VALID,20,VALID,0.0132813,
2009-09-27, 00:05:04,VALID,1003.49,VALID,0,VALID,92.9426,VALID,0,VALID,24.714,VALID,20,VALID,0.234375,
2009-09-27, 00:06:04,VALID,1003.45,VALID,0,VALID,92.8587,VALID,0,VALID,24.7159,VALID,20,VALID,0.289844,
2009-09-27, 00:07:04,VALID,1003.43,VALID,0,VALID,92.7824,VALID,0,VALID,24.7159,VALID,20,VALID,0.09375,
2009-09-27, 00:08:04,VALID,1003.41,VALID,0,VALID,92.7824,VALID,0,VALID,24.6945,VALID,20,VALID,0.144531,
2009-09-27, 00:09:04,VALID,1003.41,VALID,0,VALID,92.7977,VALID,0,VALID,24.6964,VALID,20,VALID,0.182422,
2009-09-27, 00:10:04,VALID,1003.39,VALID,0,VALID,92.8206,VALID,0,VALID,24.6964,VALID,20,VALID,0,
2009-09-27, 00:11:04,VALID,1003.39,VALID,0,VALID,92.8282,VALID,0,VALID,24.6964,VALID,20,VALID,0.215234,
2009-09-27, 00:12:04,VALID,1003.36,VALID,0,VALID,92.8816,VALID,0,VALID,24.675,VALID,20,VALID,0,
2009-09-27, 00:13:04,VALID,1003.35,VALID,0,VALID,92.9808,VALID,0,VALID,24.6556,VALID,20,VALID,0,
2009-09-27, 00:14:04,VALID,1003.32,VALID,0,VALID,93.0189,VALID,0,VALID,24.6769,VALID,20,VALID,0.215625,
2009-09-27, 00:15:04,VALID,1003.32,VALID,0,VALID,93.0418,VALID,0,VALID,24.6769,VALID,20,VALID,0.0429688,
2009-09-27, 00:16:04,VALID,1003.3,VALID,0,VALID,93.08,VALID,0,VALID,24.6574,VALID,20,VALID,0,
2009-09-27, 00:17:04,VALID,1003.28,VALID,0,VALID,93.1029,VALID,0,VALID,24.6185,VALID,20,VALID,0.337109,
2009-09-27, 00:18:04,VALID,1003.27,VALID,0,VALID,93.141,VALID,0,VALID,24.638,VALID,20,VALID,0.266406,
2009-09-27, 00:19:04,VALID,1003.24,VALID,0,VALID,93.347,VALID,0,VALID,24.6361,VALID,20,VALID,0.119141,
2009-09-27, 00:20:04,VALID,1003.24,VALID,0,VALID,93.4233,VALID,0,VALID,24.6361,VALID,20,VALID,0.0574219,
2009-09-27, 00:21:04,VALID,1003.22,VALID,0,VALID,93.5758,VALID,0,VALID,24.6945,VALID,20,VALID,0.233203,
2009-09-27, 00:22:04,VALID,1003.19,VALID,0,VALID,93.7666,VALID,0,VALID,24.7919,VALID,91,VALID,0.333984,
2009-09-27, 00:23:04,VALID,1003.21,VALID,0,VALID,93.7361,VALID,0,VALID,24.8308,VALID,77,VALID,0.251953,
2009-09-27, 00:24:04,VALID,1003.17,VALID,0,VALID,93.4919,VALID,0,VALID,24.8911,VALID,77,VALID,0.1875,
2009-09-27, 00:25:04,VALID,1003.16,VALID,0,VALID,93.2173,VALID,0,VALID,24.8892,VALID,77,VALID,0,
2009-09-27, 00:26:04,VALID,1003.15,VALID,0,VALID,93.0342,VALID,0,VALID,24.9495,VALID,77,VALID,0.278125,
2009-09-27, 00:27:04,VALID,1003.14,VALID,0,VALID,92.6375,VALID,0,VALID,24.93,VALID,77,VALID,0.0605469,
2009-09-27, 00:28:04,VALID,1003.12,VALID,0,VALID,92.4544,VALID,0.100563,VALID,24.9282,VALID,77,VALID,0,
2009-09-27, 00:29:04,VALID,1003.11,VALID,0,VALID,92.2637,VALID,0,VALID,24.8892,VALID,77,VALID,0.275,
2009-09-27, 00:30:04,VALID,1003.12,VALID,0,VALID,92.0043,VALID,0,VALID,24.8503,VALID,77,VALID,0.28125,
2009-09-27, 00:31:04,VALID,1003.11,VALID,0,VALID,91.9356,VALID,0,VALID,24.8113,VALID,77,VALID,0.493359,
2009-09-27, 00:32:04,VALID,1003.1,VALID,0,VALID,92.0272,VALID,0,VALID,24.7919,VALID,76,VALID,0.252734,
2009-09-27, 00:33:04,VALID,1003.12,VALID,0,VALID,92.0348,VALID,0,VALID,24.8132,VALID,76,VALID,0.209375,
2009-09-27, 00:34:04,VALID,1003.12,VALID,0,VALID,92.2484,VALID,0.100563,VALID,24.7743,VALID,76,VALID,0.221875,
2009-09-27, 00:35:04,VALID,1003.14,VALID,0,VALID,92.4391,VALID,0.100563,VALID,24.7724,VALID,76,VALID,0.0324219,
2009-09-27, 00:36:04,VALID,1003.13,VALID,0,VALID,92.4544,VALID,0,VALID,24.7743,VALID,76,VALID,0.230078,
2009-09-27, 00:37:04,VALID,1003.16,VALID,0,VALID,92.3476,VALID,0,VALID,24.7743,VALID,76,VALID,0.235156,
2009-09-27, 00:38:04,VALID,1003.14,VALID,0,VALID,92.2408,VALID,0,VALID,24.7159,VALID,73,VALID,0.456641,
2009-09-27, 00:39:04,VALID,1003.12,VALID,0,VALID,92.6528,VALID,0,VALID,24.714,VALID,68,VALID,0.351563,
2009-09-27, 00:40:04,VALID,1003.12,VALID,0,VALID,92.546,VALID,0,VALID,24.7159,VALID,68,VALID,0.0746094,
2009-09-27, 00:41:04,VALID,1003.1,VALID,0,VALID,92.5383,VALID,0,VALID,24.6945,VALID,68,VALID,0.453906,
2009-09-27, 00:42:04,VALID,1003.09,VALID,0,VALID,92.546,VALID,0,VALID,24.675,VALID,68,VALID,0.210156,
2009-09-27, 00:43:04,VALID,1003.05,VALID,0,VALID,92.8206,VALID,0,VALID,24.6945,VALID,68,VALID,0.270703,
2009-09-27, 00:44:04,VALID,1003.04,VALID,0,VALID,92.9503,VALID,0,VALID,24.6945,VALID,61,VALID,0.119141,
2009-09-27, 00:45:04,VALID,1003,VALID,0,VALID,93.0418,VALID,0.100563,VALID,24.7353,VALID,61,VALID,0.0453125,
2009-09-27, 00:46:04,VALID,1003.01,VALID,0,VALID,93.1181,VALID,0,VALID,24.7335,VALID,60,VALID,0.106641,
2009-09-27, 00:47:04,VALID,1002.99,VALID,0,VALID,93.1868,VALID,0,VALID,24.7724,VALID,28,VALID,0.252734,
2009-09-27, 00:48:04,VALID,1002.95,VALID,0,VALID,92.8816,VALID,0,VALID,24.7937,VALID,28,VALID,0.323047,
2009-09-27, 00:49:04,VALID,1002.95,VALID,0,VALID,92.6756,VALID,0.100563,VALID,24.7724,VALID,28,VALID,0.196094,
2009-09-27, 00:50:04,VALID,1002.92,VALID,0,VALID,92.7596,VALID,0.100563,VALID,24.7919,VALID,28,VALID,0,
2009-09-27, 00:51:04,VALID,1002.89,VALID,0,VALID,92.9808,VALID,0,VALID,24.8095,VALID,52,VALID,0.637109,
2009-09-27, 00:52:04,VALID,1002.84,VALID,0,VALID,92.813,VALID,0.100563,VALID,24.8697,VALID,53,VALID,0.164844,
2009-09-27, 00:53:04,VALID,1002.86,VALID,0,VALID,92.6604,VALID,0.100563,VALID,24.9282,VALID,53,VALID,0.184375,
2009-09-27, 00:54:04,VALID,1002.82,VALID,0,VALID,92.546,VALID,0.100563,VALID,24.9866,VALID,53,VALID,0.505078,
2009-09-27, 00:55:04,VALID,1002.8,VALID,0,VALID,92.2179,VALID,0,VALID,25.0644,VALID,53,VALID,0.365625,
2009-09-27, 00:56:04,VALID,1002.79,VALID,0,VALID,91.8517,VALID,0,VALID,25.0839,VALID,53,VALID,0.276953,
2009-09-27, 00:57:04,VALID,1002.79,VALID,0,VALID,91.7297,VALID,0,VALID,25.1442,VALID,41,VALID,0.59375,
2009-09-27, 00:58:04,VALID,1002.82,VALID,0,VALID,91.5237,VALID,0,VALID,25.2027,VALID,57,VALID,0.636719,
2009-09-27, 00:59:04,VALID,1002.79,VALID,0,VALID,91.0507,VALID,0.100563,VALID,25.2397,VALID,7,VALID,0.326953,
2009-09-27, 01:00:04,VALID,1002.8,VALID,0,VALID,90.7837,VALID,0,VALID,25.2397,VALID,10,VALID,0.167187,
2009-09-27, 01:01:04,VALID,1002.81,VALID,0,VALID,90.6387,VALID,0,VALID,25.2981,VALID,79,VALID,0.247266,
2009-09-27, 01:02:04,VALID,1002.82,VALID,0,VALID,90.4327,VALID,0.100563,VALID,25.3176,VALID,76,VALID,0.283984,
2009-09-27, 01:03:04,VALID,1002.8,VALID,0,VALID,90.2344,VALID,0.100563,VALID,25.3565,VALID,73,VALID,0.483203,
2009-09-27, 01:04:04,VALID,1002.78,VALID,0,VALID,90.12,VALID,0.100563,VALID,25.4149,VALID,20,VALID,0.517578,
2009-09-27, 01:05:04,VALID,1002.78,VALID,0,VALID,89.6927,VALID,0.100563,VALID,25.4734,VALID,9,VALID,0.121484,
2009-09-27, 01:06:04,VALID,1002.76,VALID,0,VALID,89.502,VALID,0.100563,VALID,25.5123,VALID,6,VALID,0.06875,
2009-09-27, 01:07:04,VALID,1002.74,VALID,0,VALID,89.2884,VALID,0,VALID,25.5532,VALID,33,VALID,0.230469,
2009-09-27, 01:08:04,VALID,1002.76,VALID,0,VALID,89.1358,VALID,0,VALID,25.5513,VALID,34,VALID,0.417969,
2009-09-27, 01:09:04,VALID,1002.71,VALID,0,VALID,89.0138,VALID,0,VALID,25.6311,VALID,59,VALID,0.482812,
2009-09-27, 01:10:04,VALID,1002.69,VALID,0,VALID,88.7239,VALID,0,VALID,25.6681,VALID,63,VALID,0.454688,
2009-09-27, 01:11:04,VALID,1002.65,VALID,0,VALID,88.4721,VALID,0,VALID,25.7655,VALID,39,VALID,0.878125,
2009-09-27, 01:12:04,VALID,1002.65,VALID,0,VALID,87.9991,VALID,0,VALID,25.785,VALID,90,VALID,1.33047,
2009-09-27, 01:13:04,VALID,1002.62,VALID,0,VALID,87.6406,VALID,0,VALID,25.9408,VALID,90,VALID,0.650781,
2009-09-27, 01:14:04,VALID,1002.57,VALID,0,VALID,87.2439,VALID,0,VALID,25.9797,VALID,93,VALID,0.557813,
2009-09-27, 01:15:04,VALID,1002.59,VALID,0,VALID,87.0837,VALID,0,VALID,26.0401,VALID,122,VALID,0.247656,
2009-09-27, 01:16:04,VALID,1002.57,VALID,0,VALID,86.8395,VALID,0.100563,VALID,26.0187,VALID,122,VALID,0.378516,
2009-09-27, 01:17:04,VALID,1002.56,VALID,0,VALID,86.7327,VALID,0,VALID,26.0187,VALID,122,VALID,0.0574219,
2009-09-27, 01:18:04,VALID,1002.51,VALID,0,VALID,86.8167,VALID,0.100563,VALID,25.9797,VALID,70,VALID,0.149609,
2009-09-27, 01:19:04,VALID,1002.53,VALID,0,VALID,86.9692,VALID,0,VALID,25.9408,VALID,70,VALID,0.286719,
2009-09-27, 01:20:04,VALID,1002.52,VALID,0,VALID,87.015,VALID,0,VALID,25.9408,VALID,69,VALID,0.338281,
2009-09-27, 01:21:04,VALID,1002.5,VALID,0,VALID,87.16,VALID,0,VALID,25.8823,VALID,70,VALID,0.669531,
2009-09-27, 01:22:04,VALID,1002.5,VALID,0,VALID,87.1218,VALID,0,VALID,25.9427,VALID,39,VALID,0.955469,
2009-09-27, 01:23:04,VALID,1002.47,VALID,0,VALID,87.0379,VALID,0,VALID,25.8823,VALID,3,VALID,0.365234,
2009-09-27, 01:24:04,VALID,1002.44,VALID,0,VALID,87.2286,VALID,0.100563,VALID,25.8629,VALID,46,VALID,0.341016,
2009-09-27, 01:25:04,VALID,1002.4,VALID,0,VALID,87.5795,VALID,0.100563,VALID,25.8239,VALID,24,VALID,0.896484,
2009-09-27, 01:26:04,VALID,1002.4,VALID,0,VALID,87.5643,VALID,0,VALID,25.8629,VALID,71,VALID,0.688672,
2009-09-27, 01:27:04,VALID,1002.35,VALID,0,VALID,87.3965,VALID,0,VALID,25.9408,VALID,87,VALID,0.419922,
2009-09-27, 01:28:04,VALID,1002.34,VALID,0,VALID,87.1828,VALID,0,VALID,25.9602,VALID,27,VALID,0.703906,
2009-09-27, 01:29:04,VALID,1002.33,VALID,0,VALID,87.015,VALID,0,VALID,25.9992,VALID,73,VALID,0.585938,
2009-09-27, 01:30:04,VALID,1002.34,VALID,0,VALID,86.9006,VALID,0,VALID,26.0381,VALID,39,VALID,0.766016,
2009-09-27, 01:31:04,VALID,1002.34,VALID,0,VALID,86.9387,VALID,0,VALID,26.0187,VALID,21,VALID,0.369922,
2009-09-27, 01:32:04,VALID,1002.32,VALID,0,VALID,86.9082,VALID,0,VALID,26.0381,VALID,82,VALID,1.2293,
2009-09-27, 01:33:04,VALID,1002.31,VALID,0,VALID,86.6793,VALID,0,VALID,26.0985,VALID,74,VALID,0.878125,
2009-09-27, 01:34:04,VALID,1002.27,VALID,0,VALID,86.5496,VALID,0,VALID,26.157,VALID,92,VALID,1.4418,
2009-09-27, 01:35:04,VALID,1002.3,VALID,0,VALID,86.2216,VALID,0,VALID,26.2349,VALID,70,VALID,0.829297,
2009-09-27, 01:36:04,VALID,1002.27,VALID,0,VALID,86.0767,VALID,0,VALID,26.2544,VALID,85,VALID,0.329297,
2009-09-27, 01:37:04,VALID,1002.27,VALID,0,VALID,85.8859,VALID,0,VALID,26.2544,VALID,69,VALID,0.990625,
2009-09-27, 01:38:04,VALID,1002.27,VALID,0,VALID,85.802,VALID,0,VALID,26.2309,VALID,75,VALID,0.412891,
2009-09-27, 01:39:04,VALID,1002.26,VALID,0,VALID,85.8402,VALID,0,VALID,26.2524,VALID,105,VALID,0.710938,
2009-09-27, 01:40:04,VALID,1002.24,VALID,0,VALID,85.7562,VALID,0.100563,VALID,26.2739,VALID,78,VALID,0.361719,
2009-09-27, 01:41:04,VALID,1002.26,VALID,0,VALID,85.8096,VALID,0,VALID,26.2134,VALID,8,VALID,0.530859,
2009-09-27, 01:42:04,VALID,1002.22,VALID,0,VALID,85.8707,VALID,0,VALID,26.2349,VALID,64,VALID,0.678125,
2009-09-27, 01:43:04,VALID,1002.26,VALID,0,VALID,85.9546,VALID,0,VALID,26.2329,VALID,91,VALID,1.04141,
2009-09-27, 01:44:04,VALID,1002.25,VALID,0,VALID,85.8325,VALID,0,VALID,26.2349,VALID,67,VALID,0.297266,
2009-09-27, 01:45:04,VALID,1002.27,VALID,0,VALID,85.8249,VALID,0,VALID,26.2349,VALID,85,VALID,0.792188,
2009-09-27, 01:46:04,VALID,1002.25,VALID,0,VALID,85.802,VALID,0,VALID,26.2739,VALID,57,VALID,1.10195,
2009-09-27, 01:47:04,VALID,1002.24,VALID,0,VALID,85.7715,VALID,0,VALID,26.2739,VALID,20,VALID,0.423047,
2009-09-27, 01:48:04,VALID,1002.23,VALID,0,VALID,85.8554,VALID,0,VALID,26.2349,VALID,24,VALID,0.612891,
2009-09-27, 01:49:04,VALID,1002.22,VALID,0,VALID,86.0004,VALID,0,VALID,26.1959,VALID,12,VALID,0.910547,
2009-09-27, 01:50:04,VALID,1002.23,VALID,0,VALID,86.1911,VALID,0,VALID,26.1959,VALID,12,VALID,0.950391,
2009-09-27, 01:51:04,VALID,1002.22,VALID,0,VALID,86.1148,VALID,0,VALID,26.2154,VALID,32,VALID,0.581641,
2009-09-27, 01:52:04,VALID,1002.2,VALID,0,VALID,86.1224,VALID,0,VALID,26.157,VALID,28,VALID,0.337891,
2009-09-27, 01:53:04,VALID,1002.2,VALID,0,VALID,86.336,VALID,0,VALID,26.0771,VALID,23,VALID,0.576953,
2009-09-27, 01:54:04,VALID,1002.23,VALID,0,VALID,86.6641,VALID,0,VALID,26.0596,VALID,20,VALID,0.197266,
2009-09-27, 01:55:04,VALID,1002.23,VALID,0,VALID,86.8167,VALID,0,VALID,26.0206,VALID,48,VALID,0.500781,
2009-09-27, 01:56:04,VALID,1002.24,VALID,0,VALID,86.8853,VALID,0,VALID,26.0401,VALID,43,VALID,0.561328,
2009-09-27, 01:57:04,VALID,1002.24,VALID,0,VALID,86.9692,VALID,0,VALID,25.9797,VALID,6,VALID,0.517578,
2009-09-27, 01:58:04,VALID,1002.24,VALID,0,VALID,87.0684,VALID,0,VALID,26.0401,VALID,68,VALID,0.567578,
2009-09-27, 01:59:04,VALID,1002.24,VALID,0,VALID,86.9845,VALID,0,VALID,26.0381,VALID,37,VALID,0.883984,
2009-09-27, 02:00:04,VALID,1002.27,VALID,0,VALID,86.8853,VALID,0,VALID,26.0576,VALID,67,VALID,0.805859,
2009-09-27, 02:01:04,VALID,1002.23,VALID,0,VALID,86.8014,VALID,0,VALID,26.0985,VALID,57,VALID,0.957812,
2009-09-27, 02:02:04,VALID,1002.24,VALID,0,VALID,86.7556,VALID,0,VALID,26.118,VALID,97,VALID,1.075,
2009-09-27, 02:03:04,VALID,1002.23,VALID,0,VALID,86.6259,VALID,0,VALID,26.1765,VALID,92,VALID,0.475781,
2009-09-27, 02:04:04,VALID,1002.2,VALID,0,VALID,86.4428,VALID,0,VALID,26.1355,VALID,87,VALID,0.758984,
2009-09-27, 02:05:04,VALID,1002.19,VALID,0,VALID,86.4962,VALID,0,VALID,26.157,VALID,101,VALID,1.49336,
2009-09-27, 02:06:04,VALID,1002.2,VALID,0,VALID,86.4581,VALID,0,VALID,26.1959,VALID,45,VALID,0.783984,
2009-09-27, 02:07:04,VALID,1002.18,VALID,0,VALID,86.3894,VALID,0,VALID,26.2174,VALID,51,VALID,0.284766,
2009-09-27, 02:08:04,VALID,1002.14,VALID,0,VALID,86.2521,VALID,0,VALID,26.2369,VALID,75,VALID,0.755078,
2009-09-27, 02:09:04,VALID,1002.11,VALID,0,VALID,86.1682,VALID,0,VALID,26.2134,VALID,89,VALID,0.646094,
2009-09-27, 02:10:04,VALID,1002.11,VALID,0,VALID,86.1377,VALID,0,VALID,26.2134,VALID,3,VALID,0.513672,
2009-09-27, 02:11:04,VALID,1002.08,VALID,0,VALID,86.0843,VALID,0,VALID,26.2154,VALID,65,VALID,0.598047,
2009-09-27, 02:12:04,VALID,1002.06,VALID,0,VALID,86.2521,VALID,0,VALID,26.2154,VALID,98,VALID,0.857422,
2009-09-27, 02:13:04,VALID,1002.08,VALID,0,VALID,86.1987,VALID,0,VALID,26.1959,VALID,98,VALID,1.34102,
2009-09-27, 02:14:04,VALID,1002.06,VALID,0,VALID,86.1529,VALID,0,VALID,26.1745,VALID,70,VALID,0.344141,
2009-09-27, 02:15:04,VALID,1002.1,VALID,0,VALID,86.2369,VALID,0,VALID,26.1959,VALID,87,VALID,0.794922,
2009-09-27, 02:16:04,VALID,1002.11,VALID,0,VALID,86.2369,VALID,0,VALID,26.2154,VALID,86,VALID,0.688281,
2009-09-27, 02:17:04,VALID,1002.13,VALID,0,VALID,86.0538,VALID,0,VALID,26.2349,VALID,84,VALID,0.949219,
2009-09-27, 02:18:04,VALID,1002.15,VALID,0,VALID,85.8249,VALID,0,VALID,26.2933,VALID,63,VALID,0.928906,
2009-09-27, 02:19:04,VALID,1002.17,VALID,0,VALID,85.68,VALID,0,VALID,26.2913,VALID,80,VALID,1.78125,
2009-09-27, 02:20:04,VALID,1002.2,VALID,0,VALID,85.6113,VALID,0.100563,VALID,26.2913,VALID,59,VALID,1.36758,
2009-09-27, 02:21:04,VALID,1002.22,VALID,0,VALID,85.6571,VALID,0,VALID,26.3128,VALID,103,VALID,0.480859,
2009-09-27, 02:22:04,VALID,1002.26,VALID,0,VALID,85.6342,VALID,0,VALID,26.2933,VALID,57,VALID,0.639844,
2009-09-27, 02:23:04,VALID,1002.23,VALID,0,VALID,85.7791,VALID,0,VALID,26.2524,VALID,67,VALID,0.706641,
2009-09-27, 02:24:04,VALID,1002.26,VALID,0,VALID,85.741,VALID,0,VALID,26.2329,VALID,70,VALID,0.455469,
2009-09-27, 02:25:04,VALID,1002.27,VALID,0,VALID,85.9546,VALID,0,VALID,26.2524,VALID,72,VALID,0.717578,
2009-09-27, 02:26:04,VALID,1002.29,VALID,0,VALID,85.802,VALID,0,VALID,26.2524,VALID,13,VALID,0.812109,
2009-09-27, 02:27:04,VALID,1002.3,VALID,0,VALID,85.9012,VALID,0,VALID,26.2739,VALID,36,VALID,0.890625,
2009-09-27, 02:28:04,VALID,1002.31,VALID,0,VALID,86.0538,VALID,0,VALID,26.2544,VALID,97,VALID,0.745313,
2009-09-27, 02:29:04,VALID,1002.32,VALID,0,VALID,86.0919,VALID,0,VALID,26.2154,VALID,13,VALID,1.08281,
2009-09-27, 02:30:04,VALID,1002.33,VALID,0,VALID,86.1148,VALID,0,VALID,26.2349,VALID,21,VALID,0.519141,
2009-09-27, 02:31:04,VALID,1002.34,VALID,0,VALID,86.1758,VALID,0,VALID,26.2154,VALID,26,VALID,0.752734,
2009-09-27, 02:32:04,VALID,1002.32,VALID,0,VALID,86.1301,VALID,0,VALID,26.2174,VALID,57,VALID,0.475,
2009-09-27, 02:33:04,VALID,1002.34,VALID,0,VALID,86.2369,VALID,0,VALID,26.155,VALID,66,VALID,0.211719,
2009-09-27, 02:34:04,VALID,1002.32,VALID,0,VALID,86.3818,VALID,0,VALID,26.157,VALID,75,VALID,1.04414,
2009-09-27, 02:35:04,VALID,1002.35,VALID,0,VALID,86.336,VALID,0,VALID,26.157,VALID,72,VALID,0.470703,
2009-09-27, 02:36:04,VALID,1002.33,VALID,0,VALID,86.4734,VALID,0,VALID,26.1375,VALID,98,VALID,0.646484,
2009-09-27, 02:37:04,VALID,1002.34,VALID,0,VALID,86.4886,VALID,0,VALID,26.1375,VALID,30,VALID,0.862891,
2009-09-27, 02:38:04,VALID,1002.32,VALID,0,VALID,86.4352,VALID,0,VALID,26.1375,VALID,58,VALID,0.535547,
2009-09-27, 02:39:04,VALID,1002.35,VALID,0,VALID,86.3742,VALID,0,VALID,26.1375,VALID,75,VALID,0.196875,
2009-09-27, 02:40:04,VALID,1002.34,VALID,0,VALID,86.4428,VALID,0,VALID,26.1375,VALID,83,VALID,0.903516,
2009-09-27, 02:41:04,VALID,1002.35,VALID,0,VALID,86.3742,VALID,0,VALID,26.155,VALID,82,VALID,0.755469,
2009-09-27, 02:42:04,VALID,1002.38,VALID,0,VALID,86.2521,VALID,0,VALID,26.2154,VALID,82,VALID,0.679297,
2009-09-27, 02:43:04,VALID,1002.36,VALID,0,VALID,86.2521,VALID,0,VALID,26.2349,VALID,86,VALID,0.385938,
2009-09-27, 02:44:04,VALID,1002.39,VALID,0,VALID,86.1758,VALID,0,VALID,26.2154,VALID,59,VALID,1.17031,
2009-09-27, 02:45:04,VALID,1002.4,VALID,0,VALID,86.1453,VALID,0,VALID,26.2349,VALID,101,VALID,0.775,
2009-09-27, 02:46:04,VALID,1002.4,VALID,0,VALID,86.0156,VALID,0,VALID,26.2544,VALID,55,VALID,0.661719,
2009-09-27, 02:47:04,VALID,1002.41,VALID,0,VALID,86.0156,VALID,0,VALID,26.2349,VALID,23,VALID,0.600781,
2009-09-27, 02:48:04,VALID,1002.42,VALID,0,VALID,86.069,VALID,0,VALID,26.2369,VALID,73,VALID,0.276953,
2009-09-27, 02:49:04,VALID,1002.45,VALID,0,VALID,86.1682,VALID,0,VALID,26.1765,VALID,31,VALID,0.408203,
2009-09-27, 02:50:04,VALID,1002.45,VALID,0,VALID,86.275,VALID,0,VALID,26.1765,VALID,97,VALID,0.865625,
2009-09-27, 02:51:04,VALID,1002.45,VALID,0,VALID,86.2903,VALID,0,VALID,26.157,VALID,59,VALID,0.554688,
2009-09-27, 02:52:04,VALID,1002.47,VALID,0,VALID,86.3666,VALID,0,VALID,26.1375,VALID,43,VALID,0.242969,
2009-09-27, 02:53:04,VALID,1002.47,VALID,0,VALID,86.336,VALID,0,VALID,26.1375,VALID,58,VALID,0.592969,
2009-09-27, 02:54:04,VALID,1002.45,VALID,0,VALID,86.3284,VALID,0,VALID,26.0966,VALID,51,VALID,0.456641,
2009-09-27, 02:55:04,VALID,1002.45,VALID,0,VALID,86.4352,VALID,0,VALID,26.0985,VALID,67,VALID,0.291016,
2009-09-27, 02:56:04,VALID,1002.44,VALID,0,VALID,86.4962,VALID,0,VALID,26.0791,VALID,69,VALID,0.941406,
2009-09-27, 02:57:04,VALID,1002.45,VALID,0,VALID,86.4886,VALID,0,VALID,26.0966,VALID,53,VALID,0.561719,
2009-09-27, 02:58:04,VALID,1002.44,VALID,0,VALID,86.42,VALID,0,VALID,26.118,VALID,77,VALID,0.502344,
2009-09-27, 02:59:04,VALID,1002.47,VALID,0,VALID,86.275,VALID,0,VALID,26.116,VALID,80,VALID,0.535937,
2009-09-27, 03:00:04,VALID,1002.47,VALID,0,VALID,86.0004,VALID,0,VALID,26.1959,VALID,360,VALID,0.572656,
2009-09-27, 03:01:04,VALID,1002.46,VALID,0,VALID,85.8859,VALID,0,VALID,26.2154,VALID,84,VALID,0.235156,
2009-09-27, 03:02:04,VALID,1002.46,VALID,0,VALID,86.0309,VALID,0,VALID,26.157,VALID,83,VALID,0.239453,
2009-09-27, 03:03:04,VALID,1002.44,VALID,0,VALID,86.069,VALID,0,VALID,26.1375,VALID,83,VALID,0.308203,
2009-09-27, 03:04:04,VALID,1002.5,VALID,0,VALID,86.1758,VALID,0,VALID,26.118,VALID,83,VALID,0.246094,
2009-09-27, 03:05:04,VALID,1002.43,VALID,0,VALID,86.2521,VALID,0,VALID,26.0985,VALID,19,VALID,0.767187,
2009-09-27, 03:06:04,VALID,1002.39,VALID,0,VALID,86.1224,VALID,0,VALID,26.118,VALID,87,VALID,1.47617,
2009-09-27, 03:07:04,VALID,1002.38,VALID,0,VALID,86.0004,VALID,0,VALID,26.155,VALID,67,VALID,0.8125,
2009-09-27, 03:08:04,VALID,1002.37,VALID,0,VALID,85.8554,VALID,0,VALID,26.155,VALID,86,VALID,0.785937,
2009-09-27, 03:09:04,VALID,1002.35,VALID,0,VALID,85.8707,VALID,0,VALID,26.1765,VALID,109,VALID,0.412109,
2009-09-27, 03:10:04,VALID,1002.3,VALID,0,VALID,85.8249,VALID,0,VALID,26.155,VALID,79,VALID,0.336719,
2009-09-27, 03:11:04,VALID,1002.29,VALID,0,VALID,85.7944,VALID,0,VALID,26.1375,VALID,53,VALID,0.493359,
2009-09-27, 03:12:04,VALID,1002.29,VALID,0,VALID,85.7944,VALID,0,VALID,26.118,VALID,106,VALID,0.766406,
2009-09-27, 03:13:04,VALID,1002.28,VALID,0,VALID,85.8173,VALID,0,VALID,26.1375,VALID,50,VALID,0.894141,
2009-09-27, 03:14:04,VALID,1002.26,VALID,0,VALID,85.8554,VALID,0,VALID,26.118,VALID,116,VALID,0.56875,
2009-09-27, 03:15:04,VALID,1002.27,VALID,0,VALID,85.7028,VALID,0,VALID,26.1375,VALID,72,VALID,0.898438,
2009-09-27, 03:16:04,VALID,1002.27,VALID,0,VALID,85.6418,VALID,0,VALID,26.157,VALID,69,VALID,0.385938,
2009-09-27, 03:17:04,VALID,1002.28,VALID,0,VALID,85.6266,VALID,0,VALID,26.116,VALID,35,VALID,0.601172,
2009-09-27, 03:18:04,VALID,1002.26,VALID,0,VALID,85.6952,VALID,0,VALID,26.0791,VALID,21,VALID,0.460156,
2009-09-27, 03:19:04,VALID,1002.29,VALID,0,VALID,85.9927,VALID,0,VALID,26.0206,VALID,43,VALID,0.282422,
2009-09-27, 03:20:04,VALID,1002.3,VALID,0,VALID,86.3055,VALID,0,VALID,25.9427,VALID,43,VALID,0.154687,
2009-09-27, 03:21:04,VALID,1002.31,VALID,0,VALID,86.6183,VALID,0,VALID,25.8648,VALID,43,VALID,0,
2009-09-27, 03:22:04,VALID,1002.33,VALID,0,VALID,86.9158,VALID,0,VALID,25.7869,VALID,43,VALID,0.00703125,
2009-09-27, 03:23:04,VALID,1002.33,VALID,0,VALID,87.2439,VALID,0,VALID,25.7674,VALID,52,VALID,0.755469,
2009-09-27, 03:24:04,VALID,1002.35,VALID,0,VALID,87.5261,VALID,0,VALID,25.709,VALID,24,VALID,0.576953,
2009-09-27, 03:25:04,VALID,1002.32,VALID,0,VALID,87.6711,VALID,0,VALID,25.709,VALID,86,VALID,0.486719,
2009-09-27, 03:26:04,VALID,1002.34,VALID,0,VALID,87.6177,VALID,0,VALID,25.6876,VALID,72,VALID,0.676562,
2009-09-27, 03:27:04,VALID,1002.32,VALID,0,VALID,87.4727,VALID,0,VALID,25.7265,VALID,62,VALID,0.130469,
2009-09-27, 03:28:04,VALID,1002.32,VALID,0,VALID,87.4041,VALID,0,VALID,25.7674,VALID,67,VALID,0.750391,
2009-09-27, 03:29:04,VALID,1002.3,VALID,0,VALID,87.2439,VALID,0,VALID,25.8259,VALID,38,VALID,0.6375,
2009-09-27, 03:30:04,VALID,1002.31,VALID,0,VALID,86.9998,VALID,0,VALID,25.8453,VALID,35,VALID,0.264453,
2009-09-27, 03:31:04,VALID,1002.31,VALID,0,VALID,87.0226,VALID,0,VALID,25.8239,VALID,66,VALID,0.588281,
2009-09-27, 03:32:04,VALID,1002.29,VALID,0,VALID,86.9845,VALID,0,VALID,25.8044,VALID,72,VALID,0.373437,
2009-09-27, 03:33:04,VALID,1002.31,VALID,0,VALID,87.076,VALID,0,VALID,25.785,VALID,72,VALID,0.0046875,
2009-09-27, 03:34:04,VALID,1002.33,VALID,0,VALID,87.3507,VALID,0,VALID,25.7674,VALID,68,VALID,0.819141,
2009-09-27, 03:35:04,VALID,1002.33,VALID,0,VALID,87.3202,VALID,0,VALID,25.746,VALID,65,VALID,0.428516,
2009-09-27, 03:36:04,VALID,1002.36,VALID,0,VALID,87.3202,VALID,0,VALID,25.746,VALID,35,VALID,0.420703,
2009-09-27, 03:37:04,VALID,1002.36,VALID,0,VALID,87.3049,VALID,0,VALID,25.7071,VALID,35,VALID,0.309375,
2009-09-27, 03:38:04,VALID,1002.36,VALID,0,VALID,87.4804,VALID,0,VALID,25.6895,VALID,42,VALID,0.272656,
2009-09-27, 03:39:04,VALID,1002.34,VALID,0,VALID,87.549,VALID,0,VALID,25.6895,VALID,22,VALID,0.6375,
2009-09-27, 03:40:04,VALID,1002.31,VALID,0,VALID,87.5261,VALID,0,VALID,25.6895,VALID,57,VALID,0.336719,
2009-09-27, 03:41:04,VALID,1002.32,VALID,0,VALID,87.5185,VALID,0,VALID,25.748,VALID,76,VALID,0.351953,
2009-09-27, 03:42:04,VALID,1002.32,VALID,0,VALID,87.4117,VALID,0,VALID,25.7285,VALID,76,VALID,0.476953,
2009-09-27, 03:43:04,VALID,1002.3,VALID,0,VALID,87.4346,VALID,0,VALID,25.6895,VALID,74,VALID,0.357812,
2009-09-27, 03:44:04,VALID,1002.25,VALID,0,VALID,87.6177,VALID,0,VALID,25.6292,VALID,55,VALID,0.175391,
2009-09-27, 03:45:04,VALID,1002.26,VALID,0,VALID,87.8389,VALID,0,VALID,25.6097,VALID,78,VALID,0.54375,